LGSA Airport Information

Runway Information
Runway 11 Length 10982 ft width 148 ft
Elevation 428 ft Threshold 0 ft Heading 111
Runway 29 Length 10982 ft Width 148 ft
Elevation 490 ft Threshold 0 ft Heading 291
Airport Frequencies
Type A/G Name CHANIA RDO Frequency 563.7 MHZ
Type APP Name APP Frequency 118.125 MHZ
Type GND Name GND Frequency 121.7 MHZ
Type MISC Name RANGER BAS Frequency 25.24 MHZ
Type OPS Name BASE OPS Frequency 35.94 MHZ
Type PMSV Name PMSV METRO Frequency 35.94 MHZ
Type POST Name BULL PEN Frequency 27.895 MHZ
Type TWR Name TWR Frequency 121.1 MHZ
Airport Navaids
Type TACAN Name Souda Frequency 111200 KHZ
Type VOR-DME Name Chania Frequency 108600 KHZ
Type NDB Name Chania Frequency 409 KHZ
Airport Weather Information & NOTAM
ADDS - METARS form results

(0134 UTC 19 August 2018)
 
METAR text: LGSA 190120Z 28004KT CAVOK 24/18 Q1010
Conditions at: LGSA (SOUDA/KHANIA (AF, GR) observed 0120 UTC 19 August 2018
Temperature: 24.0°C (75°F)
Dewpoint: 18.0°C (64°F) [RH = 69%]
Pressure (altimeter): 29.82 inches Hg (1010.0 mb)
Winds: from the W (280 degrees) at 5 MPH (4 knots; 2.1 m/s)
Visibility: 6 or more miles (10+ km)
Ceiling: ceiling and visibility are OK
Clouds: unknown
Weather: no significant weather observed at this time

METAR text: LGSA 190050Z 00000KT CAVOK 24/19 Q1010
Conditions at: LGSA (SOUDA/KHANIA (AF, GR) observed 0050 UTC 19 August 2018
Temperature: 24.0°C (75°F)
Dewpoint: 19.0°C (66°F) [RH = 74%]
Pressure (altimeter): 29.82 inches Hg (1010.0 mb)
Winds: calm
Visibility: 6 or more miles (10+ km)
Ceiling: ceiling and visibility are OK
Clouds: unknown
Weather: no significant weather observed at this time